Welcome to the New NWS' Forecast!
Most changes are behind the scenes, but click here for differences you might notice.

Regional Weather Roundup (RWR)

Issued by Gray - Portland, ME (GYX)

                            
223 
ASUS41 KGYX 151705
RWRGYX
WEATHER ROUNDUP FOR MAINE AND NEW HAMPSHIRE
NATIONAL WEATHER SERVICE GRAY ME
100 PM EDT SUN JUL 15 2018

MEZ002-005-006-010-012-015-018-020-021-024-026-027-029-151800-
MAINE
  
CITY           SKY/WX    TMP DP  RH WIND       PRES   REMARKS
PORTLAND       CLOUDY    72  66  81 E6        29.99R                  
SANFORD        CLOUDY    73  66  78 E6        29.99R                  
BAR HARBOR     CLOUDY    70  59  68 S10       29.99F                  
WISCASSET      CLOUDY    71  65  81 CALM      30.01R                  
ROCKLAND       CLOUDY    68  63  84 S8        30.00S                  
FRYEBURG       FAIR      84  66  54 VRB5      29.96S                  
LEWISTONAUBURN CLOUDY    73  65  75 E6        30.00R                  
AUGUSTA        LGT RAIN  68  64  87 S6        29.98F                  
WATERVILLE     LGT RAIN  68  65  90 VRB3      29.95F                  
BANGOR         CLOUDY    74  64  71 SW10      29.96F                  
GREENVILLE       N/A     66  62  87 VRB3      29.97F                  
MILLINOCKET    FAIR      73  61  65 VRB6      29.96F                  
HOULTON        PTSUNNY   77  64  64 VRB6      29.92F                  
PRESQUE ISLE   CLOUDY    70  60  70 SE6       29.95S                  
FRENCHVILLE    CLOUDY    71  61  70 CALM      29.94F                  
CARIBOU        CLOUDY    69  59  70 CALM      29.94S                  
$$

NHZ002-005-008-009-011-012-014-151800-
NEW HAMPSHIRE
  
CITY           SKY/WX    TMP DP  RH WIND       PRES   REMARKS
PORTSMOUTH     CLOUDY    73  66  80 CALM      29.97S                  
ROCHESTER      CLOUDY    74  68  81 SE6       29.98S                  
NASHUA         FAIR      77  69  76 CALM      29.97S                  
MANCHESTER     PTSUNNY   80  67  64 CALM      29.95S                  
CONCORD        PTSUNNY   83  67  58 CALM      29.96S                  
LACONIA          N/A     83  66  56 VRB6      29.96F                  
PLYMOUTH       PTSUNNY   84  63  50 NW8       29.94S                  
BERLIN         FAIR      80  64  58 S5        29.97F                  
WHITEFIELD     FAIR      80  66  62 VRB5      29.98F                  
JAFFREY        FAIR      84  67  56 VRB3      29.99S                  
KEENE          FAIR      90  67  46 NE6       29.96S HX  93           
LEBANON        FAIR      85  65  51 CALM      29.94F                  
MT WASHINGTON  FOG       54  54 100 NW26G35     N/A  VSB 1/16         
$$

VTZ005-007-008-151800-
VERMONT
  
CITY           SKY/WX    TMP DP  RH WIND       PRES   REMARKS
ST JOHNSBURY     N/A     81  66  60 MISG      29.94S                  
MONTPELIER     FAIR      82  61  48 NW13      30.01S                  
BURLINGTON     FAIR      86  63  45 N8        29.95S                  
$$

MAZ007-012-024-CTZ003-RIZ002-NYZ038-NYZ072-151800-
SOUTHERN NEW ENGLAND AND NY
  
CITY           SKY/WX    TMP DP  RH WIND       PRES   REMARKS
BOSTON         FAIR      78  68  71 E10       29.96S                  
WORCESTER      PTSUNNY   82  66  57 SW9       29.98S                  
NANTUCKET      FAIR      70  65  84 S8        29.98F                  
PROVIDENCE     PTSUNNY   84  69  60 S10       29.96S                  
HARTFORD       PTSUNNY   85  67  54 W5        29.95F                  
ALBANY         PTSUNNY   88  64  44 VRB5      29.95F                  
NEW YORK CITY  LGT RAIN  77  67  71 W9        30.00F                  
$$

ANZ081-ANZ082-ANZ150-NHZ014-MEZ023>029-151800-
COASTAL MARINE OBSERVATIONS
  
STATION/POSITION TIME  TEMP    WIND        PRES    WAVE
                       AIR SEA DIR/SP/G            HT/PER
                 (UTC) (F)     (DEG/KT/KT) (MB)    (FT/S)
MOUNT DESERT ROC 1700   62     200/  4/  4 1016.4R
MATINICUS ROCK   1600   62     100/  7/  7 1015.6R
ISLE OF SHOALS   1600   66     210/  3/  3 1014.6F
JEFFREYS LEDGE   1636      67                N/A     2/ 6
$$

.............KEY..............
   WCI - WIND CHILL
   TC  - TEMPERATURE IN CELSIUS
   VSB - VISIBILITY IN MILES
   HX  - HEAT INDEX
   FAIR- INDICATES FEW OR NO CLOUDS BELOW 12,000 FT, WITH NO 
         SIGNIFICANT WEATHER AND/OR OBSTRUCTIONS TO VISIBILITY.